When you browse on this site, cookies collect data to enhance your experience and personalize the content and advertising you see.
Visit our Privacy Policy to learn more. By continuing to use the site, you agree to this use of cookies and data.
  • în România
  • Lista ţărilor
  • Pe 7 zile
  • Temperatura apei
  • Hartă satelitară
  • Meteo pe hartă
  • Widget-uri
  • user-avatar
    Intrare

    Meteo pe oră la Oruro

    Astăzi, 22 Aprilie, Luni

    Timp Temperatura Precipitaţii Vânt Presiune Umiditate
    00:00 +9°C° 0 mm 2 m/s 477 mmHg 60%
    01:00 +9°C° 0 mm 2 m/s 476 mmHg 62%
    02:00 +9°C° 0 mm 1 m/s 476 mmHg 66%
    03:00 +8°C° 0 mm 2 m/s 476 mmHg 67%
    04:00 +7°C° 0 mm 2 m/s 475 mmHg 69%
    05:00 +7°C° 0 mm 2 m/s 475 mmHg 71%
    06:00 +8°C° 0 mm 2 m/s 476 mmHg 69%
    07:00 +8°C° 0 mm 2 m/s 476 mmHg 67%
    08:00 +8°C° 0 mm 2 m/s 477 mmHg 65%
    09:00 +10°C° 0 mm 2 m/s 478 mmHg 55%
    10:00 +13°C° 0 mm 2 m/s 478 mmHg 44%
    11:00 +14°C° 0 mm 2 m/s 479 mmHg 33%
    12:00 +15°C° 0 mm 2 m/s 479 mmHg 28%
    13:00 +16°C° 0 mm 2 m/s 479 mmHg 24%
    14:00 +17°C° 0 mm 2 m/s 479 mmHg 19%
    15:00 +19°C° 0 mm 1 m/s 479 mmHg 19%
    16:00 +19°C° 0 mm 1 m/s 479 mmHg 18%
    17:00 +19°C° 0 mm 1 m/s 478 mmHg 17%
    18:00 +16°C° 0 mm 2 m/s 478 mmHg 25%
    19:00 +13°C° 0 mm 4 m/s 477 mmHg 34%
    20:00 +12°C° 0 mm 5 m/s 477 mmHg 42%
    21:00 +10°C° 0 mm 5 m/s 477 mmHg 48%
    22:00 +10°C° 0 mm 4 m/s 476 mmHg 53%
    23:00 +8°C° 0 mm 4 m/s 476 mmHg 59%

    Mâine, 23 Aprilie, Marţi

    Timp Temperatura Precipitaţii Vânt Presiune Umiditate
    00:00 +8°C° 0 mm 4 m/s 476 mmHg 60%
    01:00 +8°C° 0 mm 3 m/s 476 mmHg 61%
    02:00 +8°C° 0 mm 3 m/s 476 mmHg 63%
    03:00 +7°C° 0 mm 3 m/s 475 mmHg 63%
    04:00 +7°C° 0 mm 3 m/s 475 mmHg 64%
    05:00 +5°C° 0 mm 3 m/s 475 mmHg 65%
    06:00 +7°C° 0 mm 3 m/s 475 mmHg 63%
    07:00 +7°C° 0 mm 3 m/s 476 mmHg 60%
    08:00 +8°C° 0 mm 3 m/s 477 mmHg 58%
    09:00 +10°C° 0 mm 4 m/s 478 mmHg 52%
    10:00 +11°C° 0 mm 4 m/s 479 mmHg 47%
    11:00 +13°C° 0 mm 4 m/s 480 mmHg 41%
    12:00 +14°C° 0 mm 5 m/s 479 mmHg 40%
    13:00 +14°C° 0 mm 5 m/s 479 mmHg 38%
    14:00 +15°C° 0 mm 5 m/s 479 mmHg 36%
    15:00 +15°C° 0 mm 6 m/s 478 mmHg 38%
    16:00 +14°C° 0 mm 6 m/s 478 mmHg 39%
    17:00 +14°C° 0 mm 6 m/s 477 mmHg 40%
    18:00 +13°C° 0 mm 6 m/s 477 mmHg 46%
    19:00 +10°C° 0 mm 7 m/s 477 mmHg 52%
    20:00 +9°C° 0 mm 7 m/s 476 mmHg 58%
    21:00 +8°C° 0 mm 6 m/s 477 mmHg 59%
    22:00 +8°C° 0 mm 5 m/s 477 mmHg 60%
    23:00 +7°C° 0 mm 4 m/s 477 mmHg 61%

    Poimâine, 24 Aprilie, Miercuri

    Timp Temperatura Precipitaţii Vânt Presiune Umiditate
    00:00 +7°C° 0 mm 4 m/s 476 mmHg 65%
    01:00 +6°C° 0 mm 4 m/s 476 mmHg 68%
    02:00 +7°C° 0 mm 3 m/s 476 mmHg 71%
    03:00 +7°C° 0 mm 3 m/s 475 mmHg 73%
    04:00 +5°C° 0 mm 3 m/s 475 mmHg 75%
    05:00 +6°C° 0 mm 2 m/s 475 mmHg 77%
    06:00 +5°C° 0 mm 3 m/s 475 mmHg 75%
    07:00 +7°C° 0 mm 3 m/s 476 mmHg 73%
    08:00 +7°C° 0 mm 3 m/s 477 mmHg 71%
    09:00 +9°C° 0.1 mm 3 m/s 478 mmHg 64%
    10:00 +10°C° 0.1 mm 3 m/s 479 mmHg 58%
    11:00 +12°C° 0.1 mm 4 m/s 480 mmHg 51%
    12:00 +12°C° 0.2 mm 4 m/s 480 mmHg 49%
    13:00 +12°C° 0.2 mm 4 m/s 479 mmHg 48%
    14:00 +13°C° 0.2 mm 4 m/s 479 mmHg 46%
    15:00 +13°C° 0.1 mm 4 m/s 479 mmHg 46%
    16:00 +13°C° 0.1 mm 4 m/s 478 mmHg 46%
    17:00 +13°C° 0.1 mm 4 m/s 478 mmHg 46%
    18:00 +12°C° 0.1 mm 4 m/s 478 mmHg 51%
    19:00 +10°C° 0.1 mm 5 m/s 478 mmHg 56%
    20:00 +9°C° 0.1 mm 5 m/s 478 mmHg 61%
    21:00 +9°C° 0 mm 5 m/s 478 mmHg 62%
    22:00 +8°C° 0 mm 4 m/s 478 mmHg 63%
    23:00 +7°C° 0 mm 4 m/s 478 mmHg 64%

    25 Aprilie, Joi

    Timp Temperatura Precipitaţii Vânt Presiune Umiditate
    00:00 +7°C° 0 mm 4 m/s 477 mmHg 66%
    01:00 +7°C° 0 mm 3 m/s 477 mmHg 68%
    02:00 +7°C° 0 mm 3 m/s 476 mmHg 70%
    03:00 +7°C° 0 mm 3 m/s 476 mmHg 72%
    04:00 +6°C° 0 mm 2 m/s 476 mmHg 74%
    05:00 +6°C° 0 mm 2 m/s 476 mmHg 77%
    06:00 +6°C° 0 mm 2 m/s 476 mmHg 75%
    07:00 +7°C° 0 mm 2 m/s 477 mmHg 73%
    08:00 +7°C° 0 mm 2 m/s 478 mmHg 71%
    09:00 +9°C° 0 mm 3 m/s 479 mmHg 63%
    10:00 +10°C° 0 mm 3 m/s 480 mmHg 56%
    11:00 +12°C° 0 mm 3 m/s 481 mmHg 49%
    12:00 +13°C° 0.2 mm 3 m/s 480 mmHg 47%
    13:00 +13°C° 0.2 mm 4 m/s 480 mmHg 45%
    14:00 +14°C° 0.2 mm 4 m/s 480 mmHg 43%
    15:00 +14°C° 0.2 mm 4 m/s 479 mmHg 44%
    16:00 +14°C° 0.2 mm 5 m/s 479 mmHg 45%
    17:00 +14°C° 0.2 mm 5 m/s 479 mmHg 46%
    18:00 +12°C° 0.4 mm 5 m/s 478 mmHg 52%
    19:00 +10°C° 0.4 mm 5 m/s 478 mmHg 58%
    20:00 +9°C° 0.4 mm 5 m/s 478 mmHg 64%
    21:00 +8°C° 0.1 mm 5 m/s 478 mmHg 64%
    22:00 +8°C° 0.1 mm 4 m/s 478 mmHg 65%
    23:00 +8°C° 0.1 mm 4 m/s 478 mmHg 65%

    26 Aprilie, Vineri

    Timp Temperatura Precipitaţii Vânt Presiune Umiditate
    00:00 +8°C° 0 mm 3 m/s 478 mmHg 67%
    01:00 +8°C° 0 mm 2 m/s 478 mmHg 69%
    02:00 +9°C° 0 mm 1 m/s 477 mmHg 70%
    03:00 +8°C° 0.2 mm 1 m/s 477 mmHg 73%
    04:00 +8°C° 0.2 mm 1 m/s 477 mmHg 75%
    05:00 +8°C° 0.2 mm 1 m/s 476 mmHg 78%
    06:00 +8°C° 0 mm 1 m/s 477 mmHg 76%
    07:00 +7°C° 0 mm 2 m/s 477 mmHg 74%
    08:00 +8°C° 0 mm 2 m/s 478 mmHg 72%
    09:00 +9°C° 0 mm 3 m/s 479 mmHg 64%
    10:00 +11°C° 0 mm 3 m/s 479 mmHg 56%
    11:00 +12°C° 0 mm 4 m/s 480 mmHg 47%
    12:00 +13°C° 0 mm 4 m/s 480 mmHg 44%
    13:00 +14°C° 0 mm 4 m/s 480 mmHg 40%
    14:00 +15°C° 0 mm 5 m/s 480 mmHg 36%
    15:00 +15°C° 0 mm 4 m/s 479 mmHg 37%
    16:00 +15°C° 0 mm 4 m/s 479 mmHg 37%
    17:00 +16°C° 0 mm 3 m/s 479 mmHg 38%
    18:00 +14°C° 0.2 mm 3 m/s 479 mmHg 44%
    19:00 +13°C° 0.2 mm 3 m/s 478 mmHg 50%
    20:00 +12°C° 0.2 mm 3 m/s 478 mmHg 56%
    21:00 +11°C° 0 mm 3 m/s 478 mmHg 60%
    22:00 +10°C° 0 mm 3 m/s 478 mmHg 65%
    23:00 +9°C° 0 mm 3 m/s 478 mmHg 69%

    27 Aprilie, Sâmbătă

    Timp Temperatura Precipitaţii Vânt Presiune Umiditate
    00:00 +8°C° 0 mm 2 m/s 477 mmHg 72%
    01:00 +8°C° 0 mm 2 m/s 476 mmHg 74%
    02:00 +7°C° 0 mm 2 m/s 476 mmHg 77%
    03:00 +7°C° 0 mm 2 m/s 476 mmHg 77%
    04:00 +6°C° 0 mm 2 m/s 475 mmHg 78%
    05:00 +4°C° 0 mm 3 m/s 475 mmHg 79%
    06:00 +5°C° 0 mm 3 m/s 476 mmHg 74%
    07:00 +5°C° 0 mm 3 m/s 476 mmHg 68%
    08:00 +7°C° 0 mm 3 m/s 477 mmHg 62%
    09:00 +8°C° 0 mm 4 m/s 478 mmHg 51%
    10:00 +11°C° 0 mm 4 m/s 479 mmHg 40%
    11:00 +13°C° 0 mm 4 m/s 480 mmHg 28%
    12:00 +14°C° 0 mm 4 m/s 480 mmHg 25%
    13:00 +15°C° 0 mm 4 m/s 480 mmHg 21%
    14:00 +17°C° 0 mm 4 m/s 480 mmHg 18%
    15:00 +17°C° 0 mm 4 m/s 479 mmHg 17%
    16:00 +17°C° 0 mm 3 m/s 479 mmHg 16%
    17:00 +17°C° 0 mm 3 m/s 479 mmHg 15%
    18:00 +14°C° 0 mm 3 m/s 478 mmHg 23%
    19:00 +12°C° 0 mm 3 m/s 478 mmHg 30%
    20:00 +11°C° 0 mm 3 m/s 477 mmHg 37%
    21:00 +10°C° 0 mm 3 m/s 477 mmHg 48%
    22:00 +9°C° 0 mm 3 m/s 476 mmHg 58%
    23:00 +8°C° 0 mm 3 m/s 476 mmHg 69%
    Arată mai mult